EQUISAT (43552 NORAD) Tracking and Keplerian Element Data

This shows tracking and keplerian element data for the satellite.

Feedback or suggestion? Click here.




ElementValue
Catalog43552
NameEQUISAT
Epoch Orbit4457
Epoch Day115.63895915
Epoch Year2019
RAAN254.3317
Inclination51.6387
Eccentricity0.0006234
Argument of Perigee302.5626
Mean Anonmoly57.4765
Mean Motion15.60432106
Decay Rate0.00013472
L11 43552U 98067PA 19115.63895915 .00013472 00000-0 16660-3 0 9991
L22 43552 51.6387 254.3317 0006234 302.5626 57.4765 15.60432106 44577

Live tracking and technical data element details for EQUISAT (NORAD 43552). EQUISAT can be tracked NOW for your location showing map with azimuth and elevation plus other details from your city location.

Track the satellite on the map from your city or location and see movement details for azimuth, elevation, latitude, longitude, range, height, and movement on the map or in text.







IsCatalogInMostPopularTable: catalog: 43552, numindb: 130
Update: records affected: 1



GetName: 43552 EQUISAT

Hit Count: updated at: Fri, 26 Apr 2019 15:51:47 GMT